Centralia, IL

2:10 AM CST on February 10, 2016 (GMT -0600)
Centralia Municipal

Weather History for KENL - December, 2013

Change the Weather History Date:

Wednesday, December 4, 2013

  Actual Average (KSLO) Record (KSLO)
Temperature  
Mean Temperature 56 °F -  
Max Temperature 69 °F 45 °F 68 °F (2001)
Min Temperature 44 °F 28 °F 7 °F (1991)
Degree Days  
Heating Degree Days 8    
Growing Degree Days 6 (Base 50)    
Moisture  
Dew Point 53 °F    
Average Humidity 86    
Maximum Humidity 94    
Minimum Humidity 66    
Precipitation  
Precipitation 0.00 in - - ()
Sea Level Pressure  
Sea Level Pressure 29.68 in    
Wind  
Wind Speed 6 mph (SSE)    
Max Wind Speed 24 mph    
Max Gust Speed 34 mph    
Visibility 5 miles    
Events Fog , Rain    
Averages and records for this station are not official NWS values.
T = Trace of Precipitation, MM = Missing Value Source: NWS Daily Summary

Daily Weather History Graph

Daily Weather History Graph

Search for Another Location

Airport or City:

Trip Planner

Search our weather history database for the weather conditions in past years. The results will help you decide how hot, cold, wet, or windy it might be!

Date:

Astronomy

Dec. 04, 2013 Rise Set
Actual Time 6:57 AM CST 4:35 PM CST
Civil Twilight 6:28 AM CST 5:04 PM CST
Nautical Twilight 5:55 AM CST 5:37 PM CST
Astronomical Twilight 5:23 AM CST 6:09 PM CST
Moon 8:26 AM CST (12/4) 6:45 PM CST (12/4)
Length of Visible Light 10h 36m
Length of Day
9h 37m
Waxing Crescent, 4% of the Moon is Illuminated
Dec 4
Waxing Crescent
Dec 9
First Quarter
Dec 17
Full
Dec 25
Last Quarter
Jan 1
New

Hourly Weather History & Observations

Time (CST) Temp. Dew Point Humidity Pressure Visibility Wind Dir Wind Speed Gust Speed Precip Events Conditions
12:15 AM 46.2 °F 44.4 °F 93% 29.72 in 3.0 mi Calm Calm - N/A   Clear
12:19 AM 46.4 °F 44.6 °F 93% 29.72 in 3.0 mi Calm Calm - N/A   Clear
12:35 AM 45.9 °F 44.1 °F 93% 29.72 in 2.5 mi Calm Calm - N/A   Scattered Clouds
12:39 AM 44.6 °F 42.8 °F 93% 29.72 in 2.5 mi Calm Calm - N/A   Mostly Cloudy
12:55 AM 46.2 °F 44.4 °F 93% 29.72 in 3.0 mi Calm Calm - N/A   Overcast
12:59 AM 46.4 °F 44.6 °F 93% 29.72 in 3.0 mi Calm Calm - N/A   Overcast
1:15 AM 47.7 °F 45.9 °F 93% 29.72 in 4.0 mi Calm Calm - N/A   Overcast
1:19 AM 48.2 °F 46.4 °F 93% 29.72 in 4.0 mi SE 3.5 mph - N/A   Overcast
1:35 AM 49.6 °F 47.8 °F 94% 29.72 in 5.0 mi ESE 4.6 mph - N/A   Overcast
1:39 AM 50.0 °F 48.2 °F 94% 29.72 in 5.0 mi ESE 4.6 mph - N/A   Mostly Cloudy
1:55 AM 51.1 °F 49.1 °F 93% 29.72 in 5.0 mi ESE 4.6 mph - N/A   Overcast
1:59 AM 51.8 °F 48.2 °F 88% 29.71 in 5.0 mi ESE 3.5 mph - N/A   Overcast
2:15 AM 51.8 °F 49.3 °F 91% 29.71 in 5.0 mi ESE 5.8 mph - N/A   Overcast
2:19 AM 51.8 °F 50.0 °F 94% 29.70 in 5.0 mi ESE 4.6 mph - N/A   Overcast
2:35 AM 51.8 °F 49.3 °F 91% 29.71 in 4.0 mi SE 3.5 mph - N/A   Overcast
2:39 AM 51.8 °F 50.0 °F 94% 29.70 in 4.0 mi ESE 4.6 mph - N/A   Overcast
2:55 AM 52.2 °F 50.0 °F 92% 29.69 in 4.0 mi East 3.5 mph - N/A   Overcast
3:00 AM 51.8 °F 50.0 °F 94% 29.69 in 4.0 mi East 3.5 mph - N/A   Overcast
3:15 AM 52.2 °F 50.0 °F 92% 29.69 in 3.0 mi East 3.5 mph - N/A   Overcast
3:19 AM 51.8 °F 50.0 °F 94% 29.68 in 3.0 mi East 3.5 mph - N/A   Overcast
3:35 AM 52.7 °F 50.4 °F 92% 29.69 in 3.0 mi ESE 4.6 mph - N/A   Overcast
3:40 AM 51.8 °F 50.0 °F 94% 29.69 in 3.0 mi Calm Calm - N/A   Overcast
3:55 AM 52.7 °F 50.4 °F 92% 29.69 in 2.5 mi ESE 6.9 mph - N/A   Overcast
3:59 AM 51.8 °F 50.0 °F 94% 29.69 in 2.0 mi ESE 5.8 mph - N/A   Overcast
4:15 AM 52.3 °F 50.4 °F 93% 29.69 in 1.0 mi ESE 4.6 mph - N/A   Overcast
4:20 AM 51.8 °F 50.0 °F 94% 29.69 in 0.8 mi ESE 4.6 mph - N/A   Overcast
4:35 AM 52.5 °F 50.7 °F 94% 29.69 in 0.8 mi ESE 5.8 mph - N/A   Overcast
4:40 AM 51.8 °F 50.0 °F 94% 29.68 in 0.8 mi East 4.6 mph - N/A   Overcast
4:55 AM 52.5 °F 50.7 °F 94% 29.69 in 0.8 mi ESE 5.8 mph - N/A   Overcast
4:59 AM 51.8 °F 50.0 °F 94% 29.69 in 0.8 mi ESE 6.9 mph - N/A   Overcast
5:15 AM 52.7 °F 51.1 °F 94% 29.69 in 0.8 mi ESE 5.8 mph - N/A   Overcast
5:19 AM 53.6 °F 51.8 °F 94% 29.69 in 0.8 mi ESE 6.9 mph - N/A   Overcast
5:35 AM 53.1 °F 51.4 °F 94% 29.69 in 0.5 mi ESE 5.8 mph - N/A Fog Fog
5:39 AM 53.6 °F 51.8 °F 94% 29.68 in 0.5 mi ESE 4.6 mph - N/A Fog Fog
5:55 AM 53.8 °F 52.2 °F 94% 29.68 in 0.8 mi East 4.6 mph - N/A   Overcast
5:59 AM 53.6 °F 51.8 °F 94% 29.68 in 0.8 mi East 3.5 mph - N/A   Overcast
6:15 AM 54.0 °F 52.3 °F 94% 29.69 in 0.8 mi ESE 6.9 mph - N/A   Overcast
6:19 AM 53.6 °F 51.8 °F 94% 29.69 in 0.8 mi ESE 4.6 mph - N/A   Overcast
6:35 AM 54.5 °F 52.7 °F 94% 29.69 in 0.8 mi ESE 5.8 mph - N/A   Overcast
6:55 AM 54.7 °F 53.1 °F 94% 29.68 in 0.5 mi ESE 4.6 mph - N/A Fog Fog
6:59 AM 55.4 °F 53.6 °F 94% 29.68 in 0.5 mi ESE 6.9 mph - N/A Fog Fog
7:15 AM 54.9 °F 53.2 °F 94% 29.68 in 0.5 mi ESE 5.8 mph - N/A Fog Fog
7:19 AM 55.4 °F 53.6 °F 94% 29.68 in 0.5 mi ESE 5.8 mph - N/A Fog Fog
7:35 AM 55.4 °F 53.6 °F 94% 29.67 in 0.2 mi ESE 8.1 mph - N/A Fog Fog
7:39 AM 55.4 °F 53.6 °F 94% 29.67 in 0.2 mi ESE 6.9 mph - N/A Fog Fog
7:55 AM 55.8 °F 54.1 °F 94% 29.67 in 0.2 mi ESE 6.9 mph - N/A Fog Fog
8:15 AM 56.1 °F 54.5 °F 94% 29.68 in 0.5 mi ESE 5.8 mph - N/A Fog Fog
8:35 AM 56.5 °F 54.9 °F 94% 29.68 in 0.5 mi ESE 4.6 mph - N/A Fog Fog
8:55 AM 57.4 °F 55.8 °F 94% 29.67 in 0.5 mi SE 8.1 mph - N/A Fog Fog
9:15 AM 58.1 °F 56.3 °F 94% 29.66 in 0.5 mi SE 9.2 mph - N/A Fog Fog
9:35 AM 58.5 °F 56.8 °F 94% 29.67 in 1.2 mi SSE 9.2 mph - N/A Rain Light Rain
9:55 AM 60.3 °F 58.6 °F 94% 29.67 in 3.0 mi South 12.7 mph 19.6 mph N/A   Overcast
10:15 AM 61.0 °F 59.4 °F 94% 29.66 in 4.0 mi South 13.8 mph - N/A   Overcast
10:35 AM 61.5 °F 59.2 °F 92% 29.65 in 4.0 mi South 9.2 mph - N/A   Overcast
10:55 AM 61.9 °F 58.6 °F 89% 29.64 in 5.0 mi South 13.8 mph 19.6 mph N/A   Overcast
11:15 AM 63.1 °F 58.8 °F 86% 29.63 in 7.0 mi South 13.8 mph 19.6 mph N/A   Overcast
11:35 AM 64.4 °F 59.0 °F 83% 29.62 in 7.0 mi South 13.8 mph 19.6 mph N/A   Overcast
11:55 AM 65.3 °F 59.2 °F 81% 29.61 in 10.0 mi South 18.4 mph 24.2 mph N/A   Overcast
12:15 PM 66.6 °F 59.0 °F 77% 29.59 in 10.0 mi South 17.3 mph 25.3 mph N/A   Overcast
12:35 PM 67.3 °F 58.6 °F 74% 29.58 in 10.0 mi South 24.2 mph 32.2 mph N/A   Mostly Cloudy
12:55 PM 67.8 °F 58.5 °F 72% 29.58 in 10.0 mi South 17.3 mph 26.5 mph N/A   Mostly Cloudy
1:15 PM 68.2 °F 58.5 °F 71% 29.58 in 10.0 mi South 15.0 mph 29.9 mph N/A   Scattered Clouds
1:35 PM 67.8 °F 58.5 °F 72% 29.58 in 10.0 mi South 19.6 mph 25.3 mph N/A   Mostly Cloudy
1:55 PM 68.4 °F 58.6 °F 71% 29.57 in 10.0 mi South 20.7 mph 26.5 mph N/A   Mostly Cloudy
2:15 PM 68.7 °F 58.8 °F 71% 29.57 in 10.0 mi South 19.6 mph 26.5 mph N/A   Scattered Clouds
2:35 PM 69.8 °F 58.1 °F 66% 29.57 in 10.0 mi South 24.2 mph 34.5 mph N/A   Scattered Clouds
2:55 PM 68.7 °F 57.9 °F 68% 29.57 in 10.0 mi South 23.0 mph 33.4 mph N/A   Scattered Clouds
3:15 PM 69.1 °F 57.9 °F 68% 29.57 in 10.0 mi South 23.0 mph 27.6 mph N/A   Clear
3:35 PM 68.2 °F 57.6 °F 69% 29.58 in 10.0 mi SSW 21.9 mph 28.8 mph N/A   Clear
3:55 PM 68.2 °F 57.7 °F 69% 29.59 in 10.0 mi SSW 17.3 mph - N/A   Clear
4:15 PM 67.5 °F 57.7 °F 71% 29.59 in 10.0 mi SSW 20.7 mph 25.3 mph N/A   Clear
4:35 PM 67.1 °F 57.9 °F 72% 29.62 in 10.0 mi SSW 13.8 mph 23.0 mph N/A   Scattered Clouds
4:55 PM 66.7 °F 58.1 °F 74% 29.63 in 10.0 mi SSW 16.1 mph 23.0 mph N/A   Mostly Cloudy
5:15 PM 66.4 °F 58.1 °F 75% 29.65 in 10.0 mi SSW 15.0 mph 24.2 mph N/A   Mostly Cloudy
5:35 PM 66.0 °F 58.3 °F 76% 29.65 in 10.0 mi SSW 15.0 mph 23.0 mph N/A   Scattered Clouds
5:55 PM 65.7 °F 58.3 °F 77% 29.65 in 10.0 mi SSW 13.8 mph - N/A   Clear
6:15 PM 65.5 °F 58.3 °F 77% 29.66 in 10.0 mi SSW 15.0 mph - N/A   Clear
6:35 PM 65.5 °F 58.3 °F 77% 29.67 in 10.0 mi SSW 13.8 mph - N/A   Scattered Clouds
6:55 PM 64.6 °F 58.1 °F 79% 29.68 in 10.0 mi SSW 10.4 mph - N/A   Scattered Clouds
7:15 PM 65.3 °F 58.3 °F 78% 29.69 in 10.0 mi SSW 10.4 mph - N/A   Scattered Clouds
7:35 PM 64.9 °F 58.3 °F 79% 29.70 in 10.0 mi SSW 9.2 mph - N/A   Mostly Cloudy
7:55 PM 64.8 °F 58.3 °F 79% 29.70 in 10.0 mi SW 8.1 mph - N/A   Overcast
8:15 PM 64.9 °F 58.3 °F 79% 29.70 in 10.0 mi SW 9.2 mph - N/A   Overcast
8:35 PM 63.5 °F 57.7 °F 81% 29.70 in 10.0 mi SSW 8.1 mph - N/A   Scattered Clouds
8:55 PM 63.5 °F 58.1 °F 83% 29.73 in 10.0 mi West 16.1 mph 20.7 mph N/A   Mostly Cloudy
9:15 PM 59.4 °F 50.5 °F 73% 29.75 in 10.0 mi WNW 13.8 mph 18.4 mph N/A   Overcast
9:35 PM 58.1 °F 49.1 °F 72% 29.77 in 10.0 mi WNW 17.3 mph - N/A   Overcast
9:55 PM 55.9 °F 48.0 °F 75% 29.78 in 10.0 mi WNW 16.1 mph 21.9 mph N/A   Mostly Cloudy
10:15 PM 54.1 °F 47.5 °F 78% 29.80 in 7.0 mi WNW 17.3 mph - N/A   Scattered Clouds
10:35 PM 52.7 °F 46.0 °F 78% 29.81 in 7.0 mi WNW 11.5 mph 23.0 mph N/A   Clear
10:55 PM 50.9 °F 45.1 °F 81% 29.81 in 10.0 mi WNW 10.4 mph - N/A   Clear
11:15 PM 50.2 °F 44.1 °F 79% 29.83 in 10.0 mi WNW 13.8 mph - N/A   Clear
11:35 PM 49.1 °F 42.8 °F 79% 29.83 in 10.0 mi WNW 15.0 mph 19.6 mph N/A   Scattered Clouds
11:55 PM 48.2 °F 42.1 °F 79% 29.84 in 10.0 mi WNW 11.5 mph 19.6 mph N/A   Clear